• In Österreich
  • Länderverzeichnis
  • Für 7 Tage
  • Wassertemperatur
  • Satellitenkarten
  • Wetterkarte
  • News
  • Widgets
  • user-avatar
    Anmelden

    Stündliche Wetter Stoki

    Heute, 22 Juli, Sonntag

    Zeit Temperatur Niederschläge Wind Luftdruck Luftfeuchtigkeit
    00:00 +17°C° 0 mm 2 m/S 752 mmHg 81%
    01:00 +18°C° 0 mm 1 m/S 752 mmHg 84%
    02:00 +16°C° 0 mm 1 m/S 752 mmHg 85%
    03:00 +16°C° 0 mm 1 m/S 752 mmHg 86%
    04:00 +16°C° 0 mm 1 m/S 752 mmHg 87%
    05:00 +18°C° 0 mm 1 m/S 752 mmHg 82%
    06:00 +19°C° 0 mm 1 m/S 753 mmHg 77%
    07:00 +20°C° 0 mm 1 m/S 753 mmHg 72%
    08:00 +21°C° 0 mm 2 m/S 753 mmHg 66%
    09:00 +23°C° 0 mm 2 m/S 753 mmHg 59%
    10:00 +25°C° 0 mm 2 m/S 753 mmHg 53%
    11:00 +26°C° 0 mm 2 m/S 753 mmHg 50%
    12:00 +27°C° 0 mm 2 m/S 753 mmHg 46%
    13:00 +27°C° 0 mm 3 m/S 753 mmHg 43%
    14:00 +28°C° 0 mm 2 m/S 753 mmHg 43%
    15:00 +28°C° 0 mm 2 m/S 752 mmHg 43%
    16:00 +28°C° 0 mm 2 m/S 752 mmHg 43%
    17:00 +27°C° 0 mm 2 m/S 752 mmHg 49%
    18:00 +26°C° 0 mm 2 m/S 752 mmHg 54%
    19:00 +25°C° 0 mm 1 m/S 752 mmHg 60%
    20:00 +24°C° 0 mm 1 m/S 753 mmHg 64%
    21:00 +22°C° 0 mm 1 m/S 753 mmHg 68%
    22:00 +21°C° 0 mm 1 m/S 753 mmHg 71%
    23:00 +20°C° 0 mm 1 m/S 753 mmHg 73%

    Morgen, 23 Juli, Montag

    Zeit Temperatur Niederschläge Wind Luftdruck Luftfeuchtigkeit
    00:00 +20°C° 0 mm 1 m/S 753 mmHg 75%
    01:00 +20°C° 0 mm 1 m/S 753 mmHg 77%
    02:00 +19°C° 0 mm 1 m/S 753 mmHg 79%
    03:00 +17°C° 0 mm 0 m/S 753 mmHg 81%
    04:00 +17°C° 0 mm 0 m/S 753 mmHg 82%
    05:00 +18°C° 0 mm 0 m/S 754 mmHg 77%
    06:00 +20°C° 0 mm 0 m/S 754 mmHg 72%
    07:00 +21°C° 0 mm 0 m/S 754 mmHg 68%
    08:00 +23°C° 0 mm 0 m/S 754 mmHg 62%
    09:00 +26°C° 0 mm 1 m/S 754 mmHg 56%
    10:00 +28°C° 0 mm 1 m/S 754 mmHg 50%
    11:00 +28°C° 0 mm 1 m/S 754 mmHg 48%
    12:00 +29°C° 0 mm 1 m/S 754 mmHg 47%
    13:00 +29°C° 0 mm 2 m/S 754 mmHg 45%
    14:00 +29°C° 0 mm 2 m/S 754 mmHg 47%
    15:00 +29°C° 0 mm 2 m/S 754 mmHg 48%
    16:00 +28°C° 0 mm 3 m/S 754 mmHg 50%
    17:00 +27°C° 0,1 mm 3 m/S 754 mmHg 55%
    18:00 +26°C° 0,1 mm 3 m/S 754 mmHg 60%
    19:00 +25°C° 0,1 mm 2 m/S 754 mmHg 65%
    20:00 +24°C° 0 mm 2 m/S 755 mmHg 72%
    21:00 +21°C° 0 mm 2 m/S 755 mmHg 78%
    22:00 +20°C° 0 mm 2 m/S 755 mmHg 84%
    23:00 +19°C° 0 mm 2 m/S 755 mmHg 86%

    übermorgen, 24 Juli, Dienstag

    Zeit Temperatur Niederschläge Wind Luftdruck Luftfeuchtigkeit
    00:00 +19°C° 0 mm 2 m/S 755 mmHg 87%
    01:00 +18°C° 0 mm 2 m/S 755 mmHg 89%
    02:00 +18°C° 0 mm 2 m/S 755 mmHg 90%
    03:00 +17°C° 0 mm 2 m/S 755 mmHg 90%
    04:00 +17°C° 0 mm 2 m/S 755 mmHg 90%
    05:00 +18°C° 0 mm 2 m/S 755 mmHg 85%
    06:00 +20°C° 0 mm 2 m/S 755 mmHg 80%
    07:00 +21°C° 0 mm 2 m/S 755 mmHg 74%
    08:00 +24°C° 0 mm 2 m/S 755 mmHg 69%
    09:00 +25°C° 0 mm 2 m/S 755 mmHg 63%
    10:00 +27°C° 0 mm 2 m/S 755 mmHg 57%
    11:00 +27°C° 0,2 mm 2 m/S 755 mmHg 56%
    12:00 +28°C° 0,2 mm 2 m/S 755 mmHg 55%
    13:00 +29°C° 0,2 mm 2 m/S 755 mmHg 54%
    14:00 +28°C° 0,7 mm 3 m/S 754 mmHg 56%
    15:00 +28°C° 0,7 mm 3 m/S 754 mmHg 59%
    16:00 +28°C° 0,7 mm 3 m/S 754 mmHg 61%
    17:00 +27°C° 0,3 mm 3 m/S 754 mmHg 66%
    18:00 +26°C° 0,3 mm 2 m/S 754 mmHg 72%
    19:00 +25°C° 0,3 mm 2 m/S 754 mmHg 77%
    20:00 +24°C° 0 mm 2 m/S 754 mmHg 81%
    21:00 +23°C° 0 mm 2 m/S 754 mmHg 85%
    22:00 +20°C° 0 mm 2 m/S 755 mmHg 89%
    23:00 +20°C° 0 mm 2 m/S 755 mmHg 90%

    25 Juli, Mittwoch

    Zeit Temperatur Niederschläge Wind Luftdruck Luftfeuchtigkeit
    00:00 +19°C° 0 mm 2 m/S 755 mmHg 91%
    01:00 +19°C° 0 mm 2 m/S 755 mmHg 92%
    02:00 +18°C° 0 mm 2 m/S 755 mmHg 93%
    03:00 +18°C° 0 mm 2 m/S 755 mmHg 94%
    04:00 +19°C° 0 mm 1 m/S 755 mmHg 94%
    05:00 +20°C° 0 mm 1 m/S 755 mmHg 89%
    06:00 +21°C° 0 mm 1 m/S 755 mmHg 83%
    07:00 +23°C° 0 mm 1 m/S 755 mmHg 78%
    08:00 +24°C° 0,2 mm 2 m/S 755 mmHg 72%
    09:00 +26°C° 0,2 mm 2 m/S 755 mmHg 65%
    10:00 +28°C° 0,2 mm 2 m/S 755 mmHg 59%
    11:00 +28°C° 0,2 mm 2 m/S 755 mmHg 56%
    12:00 +29°C° 0,2 mm 3 m/S 755 mmHg 53%
    13:00 +30°C° 0,2 mm 3 m/S 755 mmHg 49%
    14:00 +30°C° 0 mm 3 m/S 754 mmHg 49%
    15:00 +30°C° 0 mm 3 m/S 754 mmHg 48%
    16:00 +30°C° 0 mm 3 m/S 754 mmHg 47%
    17:00 +29°C° 0 mm 3 m/S 754 mmHg 53%
    18:00 +28°C° 0 mm 3 m/S 754 mmHg 58%
    19:00 +27°C° 0 mm 2 m/S 755 mmHg 63%
    20:00 +26°C° 0 mm 2 m/S 755 mmHg 67%
    21:00 +24°C° 0 mm 2 m/S 755 mmHg 71%
    22:00 +23°C° 0 mm 2 m/S 755 mmHg 76%
    23:00 +21°C° 0 mm 2 m/S 755 mmHg 78%

    26 Juli, Donnerstag

    Zeit Temperatur Niederschläge Wind Luftdruck Luftfeuchtigkeit
    00:00 +20°C° 0 mm 2 m/S 755 mmHg 80%
    01:00 +19°C° 0 mm 2 m/S 756 mmHg 82%
    02:00 +19°C° 0 mm 2 m/S 756 mmHg 84%
    03:00 +19°C° 0 mm 2 m/S 756 mmHg 86%
    04:00 +19°C° 0 mm 1 m/S 756 mmHg 87%
    05:00 +19°C° 0 mm 2 m/S 756 mmHg 83%
    06:00 +21°C° 0 mm 2 m/S 756 mmHg 78%
    07:00 +23°C° 0 mm 2 m/S 757 mmHg 73%
    08:00 +25°C° 0 mm 2 m/S 757 mmHg 65%
    09:00 +26°C° 0 mm 2 m/S 757 mmHg 57%
    10:00 +28°C° 0 mm 2 m/S 757 mmHg 50%
    11:00 +29°C° 0 mm 2 m/S 757 mmHg 46%
    12:00 +30°C° 0 mm 2 m/S 756 mmHg 43%
    13:00 +31°C° 0 mm 3 m/S 756 mmHg 39%
    14:00 +31°C° 0 mm 3 m/S 756 mmHg 39%
    15:00 +31°C° 0 mm 3 m/S 756 mmHg 40%
    16:00 +31°C° 0 mm 3 m/S 756 mmHg 40%
    17:00 +30°C° 0 mm 3 m/S 756 mmHg 46%
    18:00 +29°C° 0 mm 3 m/S 756 mmHg 53%
    19:00 +27°C° 0 mm 2 m/S 756 mmHg 59%
    20:00 +26°C° 0 mm 2 m/S 756 mmHg 64%
    21:00 +25°C° 0 mm 2 m/S 757 mmHg 69%
    22:00 +24°C° 0 mm 3 m/S 757 mmHg 73%
    23:00 +23°C° 0 mm 2 m/S 757 mmHg 77%

    27 Juli, Freitag

    Zeit Temperatur Niederschläge Wind Luftdruck Luftfeuchtigkeit
    00:00 +21°C° 0 mm 2 m/S 757 mmHg 80%
    01:00 +20°C° 0 mm 2 m/S 757 mmHg 83%
    02:00 +19°C° 0 mm 2 m/S 757 mmHg 84%
    03:00 +19°C° 0 mm 2 m/S 757 mmHg 86%
    04:00 +18°C° 0 mm 2 m/S 757 mmHg 87%
    05:00 +20°C° 0 mm 2 m/S 757 mmHg 82%
    06:00 +21°C° 0 mm 2 m/S 757 mmHg 76%
    07:00 +23°C° 0 mm 2 m/S 757 mmHg 71%
    08:00 +24°C° 0 mm 2 m/S 757 mmHg 64%
    09:00 +26°C° 0 mm 2 m/S 757 mmHg 57%
    10:00 +28°C° 0 mm 2 m/S 757 mmHg 50%
    11:00 +29°C° 0 mm 2 m/S 756 mmHg 48%
    12:00 +30°C° 0 mm 2 m/S 756 mmHg 46%
    13:00 +31°C° 0 mm 2 m/S 755 mmHg 44%
    14:00 +31°C° 0 mm 2 m/S 755 mmHg 45%
    15:00 +31°C° 0 mm 3 m/S 755 mmHg 47%
    16:00 +31°C° 0 mm 3 m/S 755 mmHg 48%
    17:00 +30°C° 0 mm 3 m/S 755 mmHg 54%
    18:00 +29°C° 0 mm 2 m/S 755 mmHg 61%
    19:00 +28°C° 0 mm 2 m/S 755 mmHg 67%
    20:00 +26°C° 0,2 mm 2 m/S 755 mmHg 73%
    21:00 +25°C° 0,2 mm 2 m/S 755 mmHg 79%
    22:00 +24°C° 0,2 mm 2 m/S 755 mmHg 85%
    23:00 +23°C° 0 mm 2 m/S 755 mmHg 87%
    Mehr zeigen